Time,TemperatureF,DewpointF,PressureIn,WindDirection,WindDirectionDegrees,WindSpeedMPH,WindSpeedGustMPH,Humidity,HourlyPrecipIn,Conditions,Clouds,dailyrainin,SoftwareType,DateUTC
2013-09-09 00:00:00,74.2,72.0,29.97,East,82,0.0,-999.0,93,-99.99,,,0.00,weatherlink.com 1.10,2013-09-09 04:00:00,
2013-09-09 00:15:00,74.1,72.0,29.97,East,82,0.0,-999.0,93,-99.99,,,0.00,weatherlink.com 1.10,2013-09-09 04:15:00,
2013-09-09 00:30:00,73.9,72.0,29.96,East,82,0.0,-999.0,93,-99.99,,,0.00,weatherlink.com 1.10,2013-09-09 04:30:00,
2013-09-09 00:45:00,73.9,72.0,29.96,East,82,0.0,-999.0,93,-99.99,,,0.00,weatherlink.com 1.10,2013-09-09 04:45:00,
2013-09-09 01:00:00,73.9,72.0,29.96,East,82,0.0,-999.0,93,-99.99,,,0.00,weatherlink.com 1.10,2013-09-09 05:00:00,
2013-09-09 01:15:00,73.8,72.0,29.96,East,82,0.0,-999.0,93,-99.99,,,0.00,weatherlink.com 1.10,2013-09-09 05:15:00,
2013-09-09 01:30:00,73.8,72.0,29.96,East,82,0.0,-999.0,94,-99.99,,,0.00,weatherlink.com 1.10,2013-09-09 05:30:00,
2013-09-09 01:45:00,73.7,72.0,29.96,East,82,0.0,-999.0,93,-99.99,,,0.00,weatherlink.com 1.10,2013-09-09 05:45:00,
2013-09-09 02:00:00,73.6,72.0,29.95,East,82,0.0,-999.0,93,-99.99,,,0.00,weatherlink.com 1.10,2013-09-09 06:00:00,
2013-09-09 02:15:00,73.5,71.0,29.94,East,82,0.0,-999.0,93,-99.99,,,0.00,weatherlink.com 1.10,2013-09-09 06:15:00,
2013-09-09 02:30:00,73.4,72.0,29.94,East,82,0.0,-999.0,94,-99.99,,,0.00,weatherlink.com 1.10,2013-09-09 06:30:00,
2013-09-09 02:45:00,73.3,72.0,29.94,East,82,0.0,-999.0,94,-99.99,,,0.00,weatherlink.com 1.10,2013-09-09 06:45:00,
2013-09-09 03:00:00,73.3,72.0,29.93,East,82,0.0,-999.0,95,-99.99,,,0.00,weatherlink.com 1.10,2013-09-09 07:00:00,
2013-09-09 03:15:00,73.5,72.0,29.93,East,82,0.0,-999.0,95,-99.99,,,0.00,weatherlink.com 1.10,2013-09-09 07:15:00,
2013-09-09 03:30:00,73.7,73.0,29.92,East,82,0.0,-999.0,96,-99.99,,,0.00,weatherlink.com 1.10,2013-09-09 07:30:00,
2013-09-09 03:46:00,73.8,73.0,29.92,East,82,0.0,-999.0,96,-99.99,,,0.00,weatherlink.com 1.10,2013-09-09 07:46:00,
2013-09-09 04:01:00,73.9,73.0,29.92,East,82,0.0,-999.0,96,-99.99,,,0.00,weatherlink.com 1.10,2013-09-09 08:01:00,
2013-09-09 04:16:00,74.0,73.0,29.93,East,82,0.0,-999.0,96,-99.99,,,0.00,weatherlink.com 1.10,2013-09-09 08:16:00,
2013-09-09 04:31:00,74.1,73.0,29.93,ENE,71,0.0,-999.0,96,-99.99,,,0.00,weatherlink.com 1.10,2013-09-09 08:31:00,
2013-09-09 04:46:00,74.0,73.0,29.93,ENE,63,0.0,-999.0,96,-99.99,,,0.00,weatherlink.com 1.10,2013-09-09 08:46:00,
2013-09-09 05:01:00,74.0,73.0,29.94,ENE,62,0.0,-999.0,96,-99.99,,,0.00,weatherlink.com 1.10,2013-09-09 09:01:00,
2013-09-09 05:16:00,74.0,73.0,29.94,ENE,61,0.0,-999.0,96,-99.99,,,0.00,weatherlink.com 1.10,2013-09-09 09:16:00,
2013-09-09 05:31:00,74.0,73.0,29.94,ENE,60,0.0,-999.0,96,-99.99,,,0.00,weatherlink.com 1.10,2013-09-09 09:31:00,
2013-09-09 05:46:00,74.1,73.0,29.94,ENE,59,0.0,-999.0,96,-99.99,,,0.00,weatherlink.com 1.10,2013-09-09 09:46:00,
2013-09-09 06:01:00,74.2,73.0,29.95,ENE,59,0.0,-999.0,96,-99.99,,,0.00,weatherlink.com 1.10,2013-09-09 10:01:00,
2013-09-09 06:16:00,74.1,73.0,29.95,ENE,59,0.0,-999.0,96,-99.99,,,0.00,weatherlink.com 1.10,2013-09-09 10:16:00,
2013-09-09 06:31:00,74.0,73.0,29.95,ENE,59,0.0,-999.0,96,-99.99,,,0.00,weatherlink.com 1.10,2013-09-09 10:31:00,
2013-09-09 06:46:00,73.9,73.0,29.95,ENE,59,0.0,-999.0,96,-99.99,,,0.00,weatherlink.com 1.10,2013-09-09 10:46:00,
2013-09-09 07:01:00,73.9,73.0,29.96,ENE,59,0.0,-999.0,97,-99.99,,,0.00,weatherlink.com 1.10,2013-09-09 11:01:00,
2013-09-09 07:16:00,73.8,73.0,29.96,ENE,59,0.0,-999.0,97,-99.99,,,0.00,weatherlink.com 1.10,2013-09-09 11:16:00,
2013-09-09 07:31:00,73.8,73.0,29.96,ENE,59,0.0,-999.0,97,-99.99,,,0.00,weatherlink.com 1.10,2013-09-09 11:31:00,
2013-09-09 07:46:00,74.1,73.0,29.96,ENE,59,0.0,-999.0,97,-99.99,,,0.00,weatherlink.com 1.10,2013-09-09 11:46:00,
2013-09-09 08:01:00,74.6,74.0,29.97,ENE,59,0.0,-999.0,97,-99.99,,,0.00,weatherlink.com 1.10,2013-09-09 12:01:00,
2013-09-09 08:16:00,75.4,75.0,29.97,ENE,59,0.0,-999.0,97,-99.99,,,0.00,weatherlink.com 1.10,2013-09-09 12:16:00,
2013-09-09 08:31:00,76.4,75.0,29.98,NE,55,0.0,-999.0,96,-99.99,,,0.00,weatherlink.com 1.10,2013-09-09 12:31:00,
2013-09-09 08:46:00,77.8,76.0,29.98,NE,55,0.0,-999.0,95,-99.99,,,0.00,weatherlink.com 1.10,2013-09-09 12:46:00,
2013-09-09 09:01:00,79.1,77.0,29.98,ENE,71,0.0,-999.0,93,-99.99,,,0.00,weatherlink.com 1.10,2013-09-09 13:01:00,
2013-09-09 09:16:00,80.5,77.0,29.99,ENE,65,4.0,-999.0,90,-99.99,,,0.00,weatherlink.com 1.10,2013-09-09 13:16:00,
2013-09-09 09:31:00,81.9,77.0,30.00,ENE,77,1.0,-999.0,86,-99.99,,,0.00,weatherlink.com 1.10,2013-09-09 13:31:00,
2013-09-09 09:46:00,83.2,78.0,30.00,East,88,7.0,-999.0,83,-99.99,,,0.00,weatherlink.com 1.10,2013-09-09 13:46:00,
2013-09-09 10:01:00,84.7,79.0,30.00,ENE,71,2.0,-999.0,82,-99.99,,,0.00,weatherlink.com 1.10,2013-09-09 14:01:00,
2013-09-09 10:16:00,86.4,79.0,30.01,ENE,68,5.0,-999.0,78,-99.99,,,0.00,weatherlink.com 1.10,2013-09-09 14:16:00,
2013-09-09 10:31:00,87.3,79.0,30.01,ESE,109,6.0,-999.0,77,-99.99,,,0.00,weatherlink.com 1.10,2013-09-09 14:31:00,
2013-09-09 10:46:00,88.3,79.0,30.01,East,88,4.0,-999.0,73,-99.99,,,0.00,weatherlink.com 1.10,2013-09-09 14:46:00,
2013-09-09 11:01:00,88.4,78.0,30.02,ESE,109,0.0,-999.0,72,-99.99,,,0.00,weatherlink.com 1.10,2013-09-09 15:01:00,
2013-09-09 11:16:00,88.5,78.0,30.02,ENE,73,3.0,-999.0,72,-99.99,,,0.00,weatherlink.com 1.10,2013-09-09 15:16:00,
2013-09-09 11:31:00,89.6,78.0,30.02,SE,126,5.0,-999.0,69,-99.99,,,0.00,weatherlink.com 1.10,2013-09-09 15:31:00,
2013-09-09 11:46:00,90.2,78.0,30.01,ENE,73,0.0,-999.0,67,-99.99,,,0.00,weatherlink.com 1.10,2013-09-09 15:46:00,
2013-09-09 12:01:00,90.8,80.0,30.01,ENE,62,0.0,-999.0,71,-99.99,,,0.00,weatherlink.com 1.10,2013-09-09 16:01:00,
2013-09-09 12:16:00,90.8,79.0,30.00,ENE,76,0.0,-999.0,68,-99.99,,,0.00,weatherlink.com 1.10,2013-09-09 16:16:00,
2013-09-09 12:31:00,91.7,79.0,30.00,ENE,71,6.0,-999.0,66,-99.99,,,0.00,weatherlink.com 1.10,2013-09-09 16:31:00,
2013-09-09 12:46:00,92.4,79.0,30.00,ENE,62,4.0,-999.0,65,-99.99,,,0.00,weatherlink.com 1.10,2013-09-09 16:46:00,
2013-09-09 13:01:00,92.9,80.0,29.99,ENE,69,2.0,-999.0,67,-99.99,,,0.00,weatherlink.com 1.10,2013-09-09 17:01:00,
2013-09-09 13:16:00,91.0,75.0,29.99,East,94,0.0,-999.0,60,-99.99,,,0.00,weatherlink.com 1.10,2013-09-09 17:16:00,
2013-09-09 13:31:00,92.2,79.0,29.99,ENE,67,3.0,-999.0,66,-99.99,,,0.00,weatherlink.com 1.10,2013-09-09 17:31:00,
2013-09-09 13:46:00,91.9,79.0,29.98,ENE,60,0.0,-999.0,66,-99.99,,,0.00,weatherlink.com 1.10,2013-09-09 17:46:00,
2013-09-09 14:01:00,93.2,77.0,29.98,ESE,108,0.0,-999.0,60,-99.99,,,0.00,weatherlink.com 1.10,2013-09-09 18:01:00,
2013-09-09 14:16:00,93.7,75.0,29.97,ENE,57,5.0,-999.0,55,-99.99,,,0.00,weatherlink.com 1.10,2013-09-09 18:16:00,
2013-09-09 14:31:00,92.2,78.0,29.97,NE,49,0.0,-999.0,63,-99.99,,,0.00,weatherlink.com 1.10,2013-09-09 18:31:00,
2013-09-09 14:46:00,90.7,75.0,29.96,East,94,6.0,-999.0,61,-99.99,,,0.00,weatherlink.com 1.10,2013-09-09 18:46:00,
2013-09-09 15:01:00,91.6,77.0,29.95,ESE,114,4.0,-999.0,63,-99.99,,,0.00,weatherlink.com 1.10,2013-09-09 19:01:00,
2013-09-09 15:17:00,92.8,75.0,29.95,ESE,115,0.0,-999.0,57,-99.99,,,0.00,weatherlink.com 1.10,2013-09-09 19:17:00,
2013-09-09 15:32:00,94.5,78.0,29.94,ESE,112,1.0,-999.0,60,-99.99,,,0.00,weatherlink.com 1.10,2013-09-09 19:32:00,
2013-09-09 15:47:00,93.2,77.0,29.94,ENE,73,1.0,-999.0,60,-99.99,,,0.00,weatherlink.com 1.10,2013-09-09 19:47:00,
2013-09-09 16:02:00,91.3,76.0,29.94,East,86,5.0,-999.0,61,-99.99,,,0.00,weatherlink.com 1.10,2013-09-09 20:02:00,
2013-09-09 16:17:00,89.2,76.0,29.94,East,84,3.0,-999.0,65,-99.99,,,0.00,weatherlink.com 1.10,2013-09-09 20:17:00,
2013-09-09 16:32:00,86.7,77.0,29.94,West,261,3.0,-999.0,72,-99.99,,,0.00,weatherlink.com 1.10,2013-09-09 20:32:00,
2013-09-09 16:47:00,87.3,77.0,29.94,ENE,59,12.0,-999.0,72,-99.99,,,0.00,weatherlink.com 1.10,2013-09-09 20:47:00,
2013-09-09 17:02:00,84.0,77.0,29.94,East,89,1.0,-999.0,78,-99.99,,,0.00,weatherlink.com 1.10,2013-09-09 21:02:00,
2013-09-09 17:17:00,81.7,74.0,29.95,ESE,103,6.0,-999.0,78,-99.99,,,0.00,weatherlink.com 1.10,2013-09-09 21:17:00,
2013-09-09 17:32:00,81.5,74.0,29.95,ENE,69,0.0,-999.0,79,-99.99,,,0.00,weatherlink.com 1.10,2013-09-09 21:32:00,
2013-09-09 17:47:00,81.4,75.0,29.96,SE,132,1.0,-999.0,81,-99.99,,,0.00,weatherlink.com 1.10,2013-09-09 21:47:00,
2013-09-09 18:02:00,81.1,76.0,29.96,ESE,105,0.0,-999.0,84,-99.99,,,0.00,weatherlink.com 1.10,2013-09-09 22:02:00,
2013-09-09 18:17:00,80.8,76.0,29.96,East,94,0.0,-999.0,85,-99.99,,,0.00,weatherlink.com 1.10,2013-09-09 22:17:00,
2013-09-09 18:32:00,80.6,76.0,29.97,East,94,0.0,-999.0,85,-99.99,,,0.00,weatherlink.com 1.10,2013-09-09 22:32:00,
2013-09-09 18:47:00,80.6,76.0,29.97,ESE,119,0.0,-999.0,85,-99.99,,,0.00,weatherlink.com 1.10,2013-09-09 22:47:00,
2013-09-09 19:02:00,80.4,76.0,29.97,ESE,107,0.0,-999.0,85,-99.99,,,0.00,weatherlink.com 1.10,2013-09-09 23:02:00,
2013-09-09 19:17:00,80.2,76.0,29.97,ESE,107,0.0,-999.0,86,-99.99,,,0.00,weatherlink.com 1.10,2013-09-09 23:17:00,
2013-09-09 19:32:00,80.1,75.0,29.97,SE,142,0.0,-999.0,85,-99.99,,,0.00,weatherlink.com 1.10,2013-09-09 23:32:00,
2013-09-09 19:47:00,80.1,76.0,29.98,SE,144,0.0,-999.0,86,-99.99,,,0.00,weatherlink.com 1.10,2013-09-09 23:47:00,
2013-09-09 20:02:00,79.8,76.0,29.98,SSE,151,0.0,-999.0,87,-99.99,,,0.00,weatherlink.com 1.10,2013-09-10 00:02:00,
2013-09-09 20:17:00,79.6,76.0,29.99,SSE,167,0.0,-999.0,87,-99.99,,,0.00,weatherlink.com 1.10,2013-09-10 00:17:00,
2013-09-09 20:32:00,79.4,75.0,29.99,SSE,167,0.0,-999.0,87,-99.99,,,0.00,weatherlink.com 1.10,2013-09-10 00:32:00,
2013-09-09 20:47:00,79.2,75.0,29.99,SSE,167,0.0,-999.0,88,-99.99,,,0.00,weatherlink.com 1.10,2013-09-10 00:47:00,
2013-09-09 21:02:00,79.0,75.0,29.99,SSE,167,0.0,-999.0,88,-99.99,,,0.00,weatherlink.com 1.10,2013-09-10 01:02:00,
2013-09-09 21:17:00,78.8,75.0,29.99,SSE,167,0.0,-999.0,89,-99.99,,,0.00,weatherlink.com 1.10,2013-09-10 01:17:00,
2013-09-09 21:32:00,78.6,76.0,30.00,SSE,167,0.0,-999.0,90,-99.99,,,0.00,weatherlink.com 1.10,2013-09-10 01:32:00,
2013-09-09 21:47:00,78.4,75.0,30.01,SSE,167,0.0,-999.0,90,-99.99,,,0.00,weatherlink.com 1.10,2013-09-10 01:47:00,
2013-09-09 22:02:00,78.3,76.0,30.02,SSE,167,0.0,-999.0,91,-99.99,,,0.00,weatherlink.com 1.10,2013-09-10 02:02:00,
2013-09-09 22:17:00,78.2,76.0,30.02,SSE,159,0.0,-999.0,92,-99.99,,,0.00,weatherlink.com 1.10,2013-09-10 02:17:00,
2013-09-09 22:32:00,78.1,76.0,30.02,SE,139,0.0,-999.0,92,-99.99,,,0.00,weatherlink.com 1.10,2013-09-10 02:32:00,
2013-09-09 22:47:00,78.0,76.0,30.02,SE,139,0.0,-999.0,92,-99.99,,,0.00,weatherlink.com 1.10,2013-09-10 02:47:00,
2013-09-09 23:02:00,77.9,76.0,30.01,SE,127,0.0,-999.0,93,-99.99,,,0.00,weatherlink.com 1.10,2013-09-10 03:02:00,
2013-09-09 23:17:00,77.7,76.0,30.02,ESE,121,0.0,-999.0,93,-99.99,,,0.00,weatherlink.com 1.10,2013-09-10 03:17:00,
2013-09-09 23:32:00,77.5,75.0,30.02,ESE,120,0.0,-999.0,93,-99.99,,,0.00,weatherlink.com 1.10,2013-09-10 03:32:00,
2013-09-09 23:47:00,77.4,75.0,30.02,East,79,0.0,-999.0,93,-99.99,,,0.00,weatherlink.com 1.10,2013-09-10 03:47:00,